Location: Couloutre
(47.4081°N, 3.2259°E)
Time: 09:20:43
(UTC+00:00)

CENTAUR R/B - Pass Details

Date: 27 February 2020
Orbit: 766 x 1422 km, 63.5° (Epoch: 12 March)

Event Time Altitude Azimuth Distance (km) Brightness Sun altitude
Rises 19:08:51 0° 317° (NW) 4,007 6.5 -17.8°
Reaches altitude 10° 19:11:38 10° 324° (NW) 3,136 5.7 -18.2°
Maximum altitude 19:18:56 43° 35° (NE) 1,767 3.6 -19.5°
Enters shadow 19:22:39 29° 85° (E) 2,276 3.8 -20.1°
